WRC122 LHBP-BKPR

Flight info

Callsign WRC122
Flight time 1h 16m
Altitude 39000
Route VETIK DCT BINKU DCT TEGRI DCT GUPRO DCT OVDOT DCT ERDOM/N0453F380 DCT BENGO DCT LETNI DCT LONTA
Aircraft A20N/M-SDE2E3FGHIRWXY/LB1

Departure

Time 2026-04-23 16:20
Airport Budapest Liszt Ferenc International Airport (LHBP)

Arrival

Time 2026-04-23 17:36
Airport Priština Adem Jashari International Airport (BKPR)
Time Latitude Longitude Altitude Speed Heading
2026-04-23 15:48 47.43441 19.26166 474 ft 0 kts 179°
2026-04-23 16:09 47.43446 19.26166 474 ft 2 kts 177°
2026-04-23 16:10 47.43461 19.26164 474 ft 2 kts 179°
2026-04-23 16:10 47.43476 19.26164 474 ft 2 kts 178°
2026-04-23 16:10 47.43491 19.26164 474 ft 2 kts 179°
2026-04-23 16:10 47.43506 19.26163 474 ft 2 kts 179°
2026-04-23 16:11 47.43518 19.26163 475 ft 2 kts 179°
2026-04-23 16:11 47.43533 19.26162 474 ft 2 kts 178°
2026-04-23 16:11 47.43545 19.26162 474 ft 2 kts 179°
2026-04-23 16:11 47.43560 19.26165 475 ft 2 kts 205°
2026-04-23 16:12 47.43569 19.26174 475 ft 0 kts 222°
2026-04-23 16:12 47.43574 19.26182 475 ft 0 kts 225°
2026-04-23 16:14 47.43568 19.26172 475 ft 5 kts 224°
2026-04-23 16:14 47.43532 19.26123 474 ft 8 kts 223°
2026-04-23 16:15 47.43481 19.26054 474 ft 11 kts 222°
2026-04-23 16:15 47.43434 19.25990 473 ft 0 kts 223°
2026-04-23 16:15 47.43425 19.25976 472 ft 7 kts 229°
2026-04-23 16:16 47.43433 19.25880 471 ft 12 kts 319°
2026-04-23 16:16 47.43492 19.25787 470 ft 12 kts 312°
2026-04-23 16:16 47.43540 19.25680 470 ft 12 kts 271°
2026-04-23 16:16 47.43480 19.25568 467 ft 15 kts 221°
2026-04-23 16:17 47.43397 19.25455 465 ft 17 kts 224°
2026-04-23 16:17 47.43303 19.25331 461 ft 19 kts 221°
2026-04-23 16:17 47.43196 19.25189 456 ft 17 kts 221°
2026-04-23 16:17 47.43147 19.25122 453 ft 6 kts 223°
2026-04-23 16:18 47.43146 19.25121 453 ft 0 kts 223°
2026-04-23 16:18 47.43145 19.25120 453 ft 1 kts 223°
2026-04-23 16:18 47.43127 19.25095 453 ft 6 kts 223°
2026-04-23 16:19 47.43095 19.25008 449 ft 13 kts 263°
2026-04-23 16:19 47.43117 19.24910 446 ft 0 kts 312°
2026-04-23 16:19 47.43170 19.24823 445 ft 44 kts 312°
2026-04-23 16:19 47.43558 19.24197 432 ft 117 kts 311°
2026-04-23 16:20 47.44231 19.23106 579 ft 160 kts 312°
2026-04-23 16:20 47.45023 19.21843 1070 ft 175 kts 313°
2026-04-23 16:20 47.45884 19.20507 1686 ft 189 kts 313°
2026-04-23 16:20 47.46852 19.19023 2190 ft 213 kts 312°
2026-04-23 16:21 47.47865 19.17371 2910 ft 224 kts 311°
2026-04-23 16:21 47.48970 19.15697 3611 ft 237 kts 316°
2026-04-23 16:21 47.50252 19.14064 4255 ft 252 kts 319°
2026-04-23 16:21 47.51608 19.12413 5141 ft 256 kts 319°
2026-04-23 16:22 47.52987 19.10748 6037 ft 260 kts 319°
2026-04-23 16:22 47.54385 19.09060 6903 ft 265 kts 319°
2026-04-23 16:22 47.55813 19.07335 7761 ft 269 kts 319°
2026-04-23 16:22 47.57265 19.05579 8600 ft 274 kts 319°
2026-04-23 16:23 47.58748 19.03786 9423 ft 279 kts 319°
2026-04-23 16:23 47.60253 19.01964 10224 ft 284 kts 319°
2026-04-23 16:23 47.61836 19.00117 10787 ft 298 kts 325°
2026-04-23 16:23 47.63822 18.98866 11157 ft 322 kts 346°
2026-04-23 16:24 47.66109 18.98764 11499 ft 344 kts
2026-04-23 16:24 47.68406 19.00053 11843 ft 365 kts 32°
2026-04-23 16:24 47.70367 19.02528 12520 ft 372 kts 43°
2026-04-23 16:24 47.72232 19.05207 13285 ft 376 kts 43°
2026-04-23 16:25 47.74068 19.07975 13975 ft 382 kts 50°
2026-04-23 16:25 47.75340 19.11451 14641 ft 389 kts 71°
2026-04-23 16:25 47.75704 19.15431 15343 ft 394 kts 93°
2026-04-23 16:25 47.75048 19.19376 16005 ft 398 kts 115°
2026-04-23 16:26 47.73473 19.22715 16650 ft 400 kts 133°
2026-04-23 16:26 47.71555 19.25689 17280 ft 404 kts 135°
2026-04-23 16:26 47.69549 19.28714 17852 ft 409 kts 135°
2026-04-23 16:26 47.67554 19.31734 18424 ft 414 kts 135°
2026-04-23 16:27 47.65540 19.34812 18992 ft 418 kts 134°
2026-04-23 16:27 47.63523 19.37913 19543 ft 422 kts 134°
2026-04-23 16:27 47.61487 19.41056 20084 ft 426 kts 134°
2026-04-23 16:27 47.59435 19.44228 20623 ft 430 kts 134°
2026-04-23 16:28 47.57362 19.47433 21149 ft 434 kts 134°
2026-04-23 16:28 47.55254 19.50689 21668 ft 438 kts 134°
2026-04-23 16:28 47.53149 19.53940 22178 ft 442 kts 134°
2026-04-23 16:28 47.51013 19.57234 22677 ft 446 kts 134°
2026-04-23 16:29 47.48840 19.60583 23274 ft 447 kts 134°
2026-04-23 16:29 47.46703 19.63871 23866 ft 448 kts 134°
2026-04-23 16:29 47.44514 19.67242 24349 ft 452 kts 134°
2026-04-23 16:29 47.42332 19.70607 24798 ft 456 kts 134°
2026-04-23 16:30 47.40144 19.73974 25242 ft 459 kts 134°
2026-04-23 16:30 47.37897 19.77425 25683 ft 462 kts 134°
2026-04-23 16:30 47.35669 19.80837 26098 ft 466 kts 134°
2026-04-23 16:30 47.33424 19.84268 26498 ft 469 kts 134°
2026-04-23 16:31 47.31155 19.87730 26889 ft 473 kts 134°
2026-04-23 16:31 47.28871 19.91208 27275 ft 476 kts 134°
2026-04-23 16:31 47.26547 19.94744 27667 ft 478 kts 134°
2026-04-23 16:31 47.24228 19.98267 28165 ft 477 kts 134°
2026-04-23 16:32 47.21938 20.01743 28563 ft 479 kts 134°
2026-04-23 16:32 47.19621 20.05254 28892 ft 482 kts 134°
2026-04-23 16:32 47.17265 20.08820 29208 ft 484 kts 133°
2026-04-23 16:32 47.14910 20.12380 29510 ft 487 kts 133°
2026-04-23 16:33 47.12569 20.15914 29785 ft 489 kts 133°
2026-04-23 16:33 47.10190 20.19504 30063 ft 491 kts 133°
2026-04-23 16:33 47.07481 20.23585 30359 ft 494 kts 133°
2026-04-23 16:33 47.05070 20.27211 30604 ft 496 kts 133°
2026-04-23 16:34 47.02682 20.30797 30840 ft 497 kts 133°
2026-04-23 16:34 47.00253 20.34434 31153 ft 497 kts 133°
2026-04-23 16:34 46.97853 20.38021 31505 ft 495 kts 132°
2026-04-23 16:34 46.95417 20.41606 31849 ft 494 kts 134°
2026-04-23 16:35 46.92900 20.44961 32167 ft 494 kts 137°
2026-04-23 16:35 46.90220 20.48120 32474 ft 494 kts 141°
2026-04-23 16:35 46.87400 20.51038 32750 ft 495 kts 144°
2026-04-23 16:35 46.84528 20.53843 33009 ft 495 kts 144°
2026-04-23 16:36 46.81685 20.56609 33254 ft 495 kts 144°
2026-04-23 16:36 46.78809 20.59413 33496 ft 495 kts 144°
2026-04-23 16:36 46.75949 20.62208 33734 ft 495 kts 144°
2026-04-23 16:36 46.73117 20.64977 33960 ft 496 kts 144°
2026-04-23 16:37 46.70271 20.67770 34185 ft 496 kts 145°
2026-04-23 16:37 46.67401 20.70591 34421 ft 495 kts 145°
2026-04-23 16:37 46.64555 20.73380 34663 ft 495 kts 145°
2026-04-23 16:37 46.61700 20.76171 34904 ft 494 kts 145°
2026-04-23 16:38 46.58848 20.78952 35138 ft 494 kts 145°
2026-04-23 16:38 46.55976 20.81747 35368 ft 493 kts 145°
2026-04-23 16:38 46.53145 20.84498 35587 ft 493 kts 145°
2026-04-23 16:38 46.50279 20.87278 35800 ft 492 kts 145°
2026-04-23 16:39 46.47430 20.90039 36015 ft 492 kts 146°
2026-04-23 16:39 46.44594 20.92787 36257 ft 490 kts 146°
2026-04-23 16:39 46.41799 20.95491 36513 ft 488 kts 146°
2026-04-23 16:39 46.38988 20.98206 36769 ft 486 kts 146°
2026-04-23 16:40 46.36147 21.00947 37015 ft 484 kts 146°
2026-04-23 16:40 46.33388 21.03604 37236 ft 482 kts 146°
2026-04-23 16:40 46.30588 21.06298 37432 ft 481 kts 147°
2026-04-23 16:40 46.27824 21.08952 37606 ft 480 kts 147°
2026-04-23 16:41 46.25028 21.11648 37771 ft 479 kts 146°
2026-04-23 16:41 46.22292 21.14350 37926 ft 478 kts 146°
2026-04-23 16:41 46.19545 21.17085 38046 ft 478 kts 146°
2026-04-23 16:41 46.16823 21.19797 38134 ft 479 kts 146°
2026-04-23 16:42 46.14121 21.22481 38337 ft 470 kts 145°
2026-04-23 16:42 46.09135 21.27426 38728 ft 457 kts 145°
2026-04-23 16:42 46.06519 21.30011 38921 ft 454 kts 145°
2026-04-23 16:43 46.03365 21.33123 38972 ft 456 kts 145°
2026-04-23 16:43 45.98073 21.38320 38962 ft 463 kts 146°
2026-04-23 16:44 45.92753 21.43538 38961 ft 470 kts 146°
2026-04-23 16:44 45.87300 21.48875 38955 ft 475 kts 146°
2026-04-23 16:45 45.81805 21.54220 38955 ft 480 kts 146°
2026-04-23 16:45 45.76246 21.59635 38954 ft 484 kts 146°
2026-04-23 16:46 45.70706 21.65029 38951 ft 485 kts 146°
2026-04-23 16:46 45.65093 21.70510 38952 ft 485 kts 146°
2026-04-23 16:47 45.59527 21.75925 38953 ft 485 kts 146°
2026-04-23 16:47 45.53945 21.81329 38953 ft 484 kts 146°
2026-04-23 16:48 45.48391 21.86685 38959 ft 485 kts 146°
2026-04-23 16:48 45.42979 21.92473 38966 ft 485 kts 140°
2026-04-23 16:49 45.37836 21.98667 38972 ft 485 kts 140°
2026-04-23 16:49 45.32693 22.04856 38976 ft 485 kts 140°
2026-04-23 16:50 45.27549 22.11025 38979 ft 484 kts 140°
2026-04-23 16:50 45.22419 22.17156 38978 ft 485 kts 140°
2026-04-23 16:51 45.17249 22.23321 38979 ft 485 kts 140°
2026-04-23 16:51 45.12074 22.29475 38979 ft 485 kts 140°
2026-04-23 16:52 45.06903 22.35614 38980 ft 484 kts 140°
2026-04-23 16:52 45.01763 22.41700 38980 ft 482 kts 140°
2026-04-23 16:53 44.96634 22.47754 38979 ft 479 kts 141°
2026-04-23 16:53 44.91525 22.53769 38978 ft 478 kts 141°
2026-04-23 16:54 44.86432 22.59733 38976 ft 478 kts 141°
2026-04-23 16:54 44.81324 22.65694 38970 ft 477 kts 141°
2026-04-23 16:55 44.76200 22.71710 38955 ft 478 kts 141°
2026-04-23 16:55 44.71122 22.77651 38938 ft 477 kts 141°
2026-04-23 16:56 44.66020 22.83600 38921 ft 477 kts 142°
2026-04-23 16:56 44.60883 22.89530 38907 ft 475 kts 144°
2026-04-23 16:57 44.55430 22.94605 38902 ft 469 kts 154°
2026-04-23 16:57 44.49593 22.98390 38900 ft 462 kts 162°
2026-04-23 16:58 44.43446 23.00902 38900 ft 457 kts 170°
2026-04-23 16:58 44.37244 23.02805 38898 ft 454 kts 170°
2026-04-23 16:59 44.31109 23.04687 38896 ft 453 kts 170°
2026-04-23 16:59 44.24976 23.06575 38896 ft 453 kts 170°
2026-04-23 17:00 44.18815 23.08470 38895 ft 453 kts 170°
2026-04-23 17:00 44.12685 23.10356 38897 ft 452 kts 170°
2026-04-23 17:01 44.06530 23.12245 38898 ft 453 kts 170°
2026-04-23 17:01 44.00360 23.14132 38896 ft 453 kts 170°
2026-04-23 17:02 43.94215 23.16009 38896 ft 453 kts 170°
2026-04-23 17:02 43.88076 23.17881 38898 ft 453 kts 170°
2026-04-23 17:03 43.81926 23.19743 38896 ft 454 kts 170°
2026-04-23 17:03 43.75738 23.21617 38898 ft 454 kts 170°
2026-04-23 17:04 43.69580 23.23491 38901 ft 453 kts 170°
2026-04-23 17:04 43.63446 23.25349 38906 ft 453 kts 170°
2026-04-23 17:05 43.57305 23.26909 38908 ft 451 kts 176°
2026-04-23 17:05 43.54143 23.27221 38403 ft 453 kts 181°
2026-04-23 17:05 43.51017 23.27147 37741 ft 450 kts 186°
2026-04-23 17:06 43.47948 23.26707 37553 ft 437 kts 191°
2026-04-23 17:06 43.44973 23.25947 37520 ft 433 kts 195°
2026-04-23 17:06 43.39189 23.23709 37373 ft 432 kts 198°
2026-04-23 17:07 43.36290 23.22518 37214 ft 432 kts 199°
2026-04-23 17:07 43.33423 23.21340 36974 ft 432 kts 198°
2026-04-23 17:07 43.30521 23.20153 36721 ft 431 kts 198°
2026-04-23 17:07 43.27649 23.18980 36470 ft 431 kts 198°
2026-04-23 17:08 43.24750 23.17798 36218 ft 432 kts 198°
2026-04-23 17:08 43.21880 23.16630 35968 ft 432 kts 198°
2026-04-23 17:08 43.19011 23.15466 35717 ft 432 kts 198°
2026-04-23 17:08 43.16097 23.14285 35464 ft 433 kts 198°
2026-04-23 17:09 43.13240 23.13128 35218 ft 434 kts 198°
2026-04-23 17:09 43.10321 23.11947 34965 ft 434 kts 198°
2026-04-23 17:09 43.07452 23.10787 34715 ft 433 kts 198°
2026-04-23 17:09 43.04536 23.09607 34461 ft 435 kts 198°
2026-04-23 17:10 43.01601 23.08421 34207 ft 435 kts 198°
2026-04-23 17:10 42.98716 23.07260 33996 ft 436 kts 199°
2026-04-23 17:10 42.92865 23.04911 33957 ft 438 kts 199°
2026-04-23 17:11 42.87017 23.02567 33953 ft 440 kts 200°
2026-04-23 17:11 42.81119 23.00209 33949 ft 442 kts 200°
2026-04-23 17:12 42.75209 22.97843 33952 ft 443 kts 200°
2026-04-23 17:12 42.69418 22.95004 33951 ft 442 kts 206°
2026-04-23 17:13 42.63765 22.91706 33952 ft 444 kts 206°
2026-04-23 17:13 42.58062 22.88389 33955 ft 446 kts 206°
2026-04-23 17:14 42.55216 22.86739 33851 ft 448 kts 206°
2026-04-23 17:14 42.52342 22.85072 33270 ft 448 kts 206°
2026-04-23 17:14 42.49497 22.83423 32543 ft 450 kts 206°
2026-04-23 17:14 42.46626 22.81760 31725 ft 451 kts 206°
2026-04-23 17:15 42.43737 22.80088 30873 ft 453 kts 205°
2026-04-23 17:15 42.40852 22.78422 30179 ft 450 kts 205°
2026-04-23 17:15 42.38004 22.76778 29686 ft 444 kts 205°
2026-04-23 17:15 42.35171 22.75145 29176 ft 438 kts 205°
2026-04-23 17:16 42.32378 22.73537 28644 ft 433 kts 205°
2026-04-23 17:16 42.29621 22.71953 28120 ft 428 kts 205°
2026-04-23 17:16 42.26901 22.70392 27608 ft 424 kts 205°
2026-04-23 17:16 42.24194 22.68840 27073 ft 420 kts 204°
2026-04-23 17:17 42.21514 22.67304 26541 ft 416 kts 204°
2026-04-23 17:17 42.18853 22.65778 25989 ft 413 kts 204°
2026-04-23 17:17 42.16237 22.64280 25442 ft 409 kts 204°
2026-04-23 17:17 42.13745 22.62517 24862 ft 406 kts 217°
2026-04-23 17:18 42.10547 22.56425 23723 ft 403 kts 252°
2026-04-23 17:18 42.10168 22.52679 23141 ft 405 kts 270°
2026-04-23 17:18 42.10337 22.48926 22624 ft 402 kts 272°
2026-04-23 17:19 42.10545 22.45177 22197 ft 397 kts 271°
2026-04-23 17:19 42.10686 22.41484 21824 ft 393 kts 271°
2026-04-23 17:19 42.10806 22.37769 21466 ft 394 kts 270°
2026-04-23 17:19 42.10918 22.34121 21125 ft 393 kts 270°
2026-04-23 17:20 42.11033 22.30434 20779 ft 391 kts 270°
2026-04-23 17:20 42.11257 22.23151 20105 ft 389 kts 270°
2026-04-23 17:21 42.11479 22.15868 19434 ft 386 kts 270°
2026-04-23 17:21 42.11589 22.12240 19102 ft 385 kts 270°
2026-04-23 17:21 42.11801 22.05091 18450 ft 382 kts 270°
2026-04-23 17:22 42.11907 22.01503 18124 ft 381 kts 270°
2026-04-23 17:22 42.12112 21.94400 17346 ft 377 kts 270°
2026-04-23 17:23 42.12309 21.87422 16477 ft 371 kts 270°
2026-04-23 17:23 42.12405 21.83952 16031 ft 369 kts 270°
2026-04-23 17:23 42.12593 21.77069 15133 ft 364 kts 271°
2026-04-23 17:24 42.12683 21.73713 14690 ft 362 kts 271°
2026-04-23 17:24 42.12774 21.70287 14238 ft 360 kts 271°
2026-04-23 17:24 42.12946 21.63638 13364 ft 355 kts 271°
2026-04-23 17:25 42.13116 21.56982 12491 ft 351 kts 271°
2026-04-23 17:25 42.13197 21.53720 12063 ft 349 kts 271°
2026-04-23 17:26 42.13354 21.47253 11332 ft 342 kts 272°
2026-04-23 17:26 42.13506 21.40912 11175 ft 334 kts 272°
2026-04-23 17:27 42.13718 21.34704 10978 ft 325 kts 281°
2026-04-23 17:27 42.14634 21.31993 10903 ft 309 kts 310°
2026-04-23 17:27 42.16309 21.30257 10272 ft 311 kts 340°
2026-04-23 17:27 42.18354 21.29481 9959 ft 303 kts 348°
2026-04-23 17:28 42.20400 21.28799 9631 ft 299 kts 346°
2026-04-23 17:28 42.22362 21.27999 9313 ft 295 kts 343°
2026-04-23 17:28 42.24295 21.27089 8990 ft 290 kts 341°
2026-04-23 17:28 42.26152 21.26152 8378 ft 283 kts 341°
2026-04-23 17:29 42.27888 21.24957 7880 ft 274 kts 325°
2026-04-23 17:29 42.29263 21.23233 7339 ft 268 kts 314°
2026-04-23 17:29 42.31635 21.19559 6351 ft 254 kts 312°
2026-04-23 17:30 42.32778 21.17773 5828 ft 252 kts 312°
2026-04-23 17:30 42.35059 21.14248 5189 ft 239 kts 312°
2026-04-23 17:30 42.36115 21.12624 4929 ft 225 kts 312°
2026-04-23 17:31 42.37114 21.11091 4778 ft 204 kts 313°
2026-04-23 17:31 42.38022 21.09696 4528 ft 191 kts 313°
2026-04-23 17:31 42.38874 21.08389 4300 ft 179 kts 313°
2026-04-23 17:31 42.39659 21.07185 4204 ft 159 kts 313°
2026-04-23 17:32 42.40377 21.06106 4181 ft 153 kts 321°
2026-04-23 17:32 42.41303 21.05454 4185 ft 151 kts 345°
2026-04-23 17:32 42.42333 21.05170 4071 ft 149 kts 354°
2026-04-23 17:32 42.43356 21.05016 4003 ft 148 kts 356°
2026-04-23 17:33 42.44391 21.04901 4003 ft 149 kts 357°
2026-04-23 17:33 42.45428 21.04795 4000 ft 149 kts 357°
2026-04-23 17:33 42.46461 21.04691 3910 ft 149 kts 357°
2026-04-23 17:33 42.47491 21.04586 3696 ft 149 kts 357°
2026-04-23 17:34 42.48512 21.04482 3464 ft 148 kts 357°
2026-04-23 17:34 42.49539 21.04376 3233 ft 147 kts 357°
2026-04-23 17:34 42.51580 21.04167 2778 ft 146 kts 356°
2026-04-23 17:35 42.52591 21.04064 2560 ft 146 kts 356°
2026-04-23 17:35 42.54614 21.03859 2109 ft 144 kts 356°
2026-04-23 17:35 42.55615 21.03750 1931 ft 144 kts 356°
2026-04-23 17:36 42.56616 21.03651 1815 ft 144 kts 356°
2026-04-23 17:36 42.57558 21.03558 1786 ft 114 kts 355°
2026-04-23 17:36 42.58175 21.03494 1794 ft 65 kts 355°
2026-04-23 17:36 42.58440 21.03470 1795 ft 15 kts
2026-04-23 17:37 42.58483 21.03406 1796 ft 6 kts 228°
2026-04-23 17:37 42.58450 21.03356 1796 ft 7 kts 234°
2026-04-23 17:37 42.58407 21.03271 1798 ft 3 kts 232°
2026-04-23 17:38 42.58395 21.03251 1798 ft 2 kts 224°
2026-04-23 17:38 42.58379 21.03240 1799 ft 3 kts 200°
2026-04-23 17:38 42.58351 21.03233 1799 ft 5 kts 182°
2026-04-23 17:38 42.58299 21.03237 1798 ft 9 kts 176°
2026-04-23 17:39 42.58217 21.03246 1796 ft 14 kts 175°
2026-04-23 17:39 42.58107 21.03257 1795 ft 16 kts 176°
2026-04-23 17:39 42.57983 21.03269 1795 ft 18 kts 175°
2026-04-23 17:39 42.57853 21.03282 1794 ft 18 kts 175°
2026-04-23 17:40 42.57760 21.03286 1792 ft 8 kts 199°
2026-04-23 17:40 42.57724 21.03221 1792 ft 8 kts 230°
2026-04-23 17:40 42.57668 21.03204 1793 ft 9 kts 175°
2026-04-23 17:40 42.57603 21.03211 1792 ft 7 kts 178°
2026-04-23 17:41 42.57582 21.03167 1792 ft 6 kts 267°
2026-04-23 17:41 42.57579 21.03102 1792 ft 0 kts 266°